Location: Chèvreville
(49.1099°N, 2.8495°E)
Time: 05:33:51
(UTC+00:00)

ISS - Visible Passes

Search period start: 18 January 2026 00:00
Search period end: 28 January 2026 00:00
Orbit: 413 x 424 km, 51.6° (Epoch: 17 January)

Date Brightness Start Highest point End Pass type
(mag) Time Alt. Az. Time Alt. Az. Time Alt. Az.
18 Jan -3.5 18:26:54 10° W 18:30:08 58° NNW 18:30:08 58° NNW visible
19 Jan -3.7 17:39:01 10° W 17:42:21 68° NNW 17:44:17 23° ENE visible
19 Jan -1.1 19:16:03 10° WNW 19:17:13 20° WNW 19:17:13 20° WNW visible
20 Jan -3.4 18:28:10 10° WNW 18:31:20 52° N 18:31:20 52° N visible
21 Jan -3.4 17:40:14 10° W 17:43:32 53° N 17:45:26 22° ENE visible
21 Jan -1.2 19:17:10 10° WNW 19:18:23 20° WNW 19:18:23 20° WNW visible
22 Jan -3.6 18:29:16 10° WNW 18:32:29 62° N 18:32:29 62° N visible
23 Jan -3.5 17:41:20 10° WNW 17:44:38 55° N 17:46:37 21° ENE visible
23 Jan -1.3 19:18:09 10° WNW 19:19:33 23° W 19:19:33 23° W visible
24 Jan -3.9 18:30:12 10° WNW 18:33:34 85° SSW 18:33:43 80° SE visible
25 Jan -3.8 17:42:14 10° WNW 17:45:36 75° NNE 17:47:57 18° E visible
25 Jan -1.3 19:19:12 10° W 19:20:54 23° WSW 19:20:54 23° WSW visible
26 Jan -2.8 18:31:05 10° WNW 18:34:18 44° SSW 18:35:14 34° SSE visible
27 Jan -3.4 17:43:01 10° WNW 17:46:20 64° SSW 17:49:39 10° SE visible
27 Jan -0.9 19:20:47 10° WSW 19:22:36 14° SW 19:22:39 14° SW visible
